Theta_e
343 342 342 342 345 346 344 342 343 343 344 348 349 347 348 347 342 340 338 347 357 360 360 358 356 357 358 360 358 358 358 356 356 357 356 353 354 355 356 353 353 353 353
345 340 340 341 342 344 345 344 343 343 341 345 346 347 346 344 343 342 344 346 351 356 357 357 355 356 357 359 359 359 359 359 359 358 357 357 357 356 354 354 355 356 356
345 344 340 340 343 343 345 346 347 347 343 344 343 346 347 346 344 343 343 343 346 353 355 356 356 355 354 355 357 359 360 361 361 361 360 359 358 357 358 358 358 357 357
346 343 343 342 343 344 344 343 344 344 343 342 341 344 344 345 348 347 346 346 349 349 352 355 355 354 354 353 356 357 357 359 360 361 361 361 359 358 359 359 358 358 359
347 344 344 346 345 343 345 347 346 344 342 341 343 343 344 345 345 349 347 347 347 348 348 351 353 354 356 355 353 354 356 359 359 359 361 360 360 359 356 358 359 358 358
345 344 344 345 346 345 345 347 346 343 342 341 344 345 345 346 344 343 345 346 346 347 347 347 348 350 355 353 354 355 355 357 358 360 361 361 360 360 360 358 359 359 359
346 345 344 345 345 344 342 344 345 343 344 345 342 340 340 342 342 341 342 343 344 346 347 347 347 347 347 353 355 355 354 355 357 360 360 358 359 359 359 359 358 359 358
347 347 345 346 346 345 344 346 346 343 342 345 338 335 331 334 338 340 341 341 341 345 347 348 348 347 347 346 349 354 353 353 355 357 359 357 359 359 358 358 358 358 358
349 347 347 345 344 345 341 344 345 343 340 342 341 336 328 324 329 334 337 339 339 340 342 343 345 346 346 347 349 350 354 353 354 354 357 358 357 358 358 358 357 358 357
348 346 345 344 342 341 341 341 346 344 342 337 338 342 337 334 330 329 332 335 337 338 338 339 344 346 347 347 349 350 350 352 352 352 353 357 358 358 359 359 358 358 358
345 346 344 342 340 341 342 343 341 340 341 339 335 335 334 334 333 330 329 329 334 335 338 338 340 339 345 347 347 349 352 351 350 352 351 353 356 357 358 358 359 358 359
342 344 345 343 344 343 343 343 342 341 339 339 337 336 333 330 330 331 332 326 327 332 334 336 337 336 341 346 349 349 351 351 350 349 350 350 353 355 357 358 358 358 358
337 341 344 344 344 343 343 342 341 339 338 336 335 334 336 339 340 336 329 325 328 330 332 335 338 339 342 342 346 348 350 349 348 345 346 347 349 352 355 356 358 358 357
340 343 344 342 341 344 342 340 338 337 335 334 334 335 334 331 330 335 335 332 328 326 328 328 334 337 338 340 345 349 345 346 345 343 343 344 345 346 349 351 352 355 355
344 344 339 337 339 341 339 337 336 334 332 330 329 328 328 329 324 323 321 322 329 323 321 330 328 334 334 339 343 340 343 344 342 342 342 342 343 343 345 348 348 348 349
340 339 338 338 338 338 337 334 333 332 330 329 326 322 320 317 316 316 319 319 317 325 324 329 332 332 330 332 337 337 341 343 343 342 341 341 341 341 340 341 343 343 344
340 340 338 337 335 334 334 333 331 329 325 323 323 320 316 316 313 310 310 310 310 312 323 327 327 329 328 324 325 329 334 338 338 339 339 336 335 335 334 335 337 338 340
339 338 336 335 333 332 331 331 330 326 323 318 314 311 312 312 307 307 306 306 307 308 309 306 311 318 325 319 321 321 324 326 330 337 336 334 334 334 333 333 333 333 333
337 336 335 334 331 330 328 327 327 324 318 314 310 309 308 305 303 304 304 305 305 306 304 304 305 309 312 313 315 317 318 318 319 330 326 325 327 326 324 323 324 328 327
336 333 333 331 325 322 321 324 322 317 313 307 306 306 307 305 304 304 306 305 305 304 303 302 302 303 306 308 309 311 308 312 311 320 322 323 322 322 321 323 323 324 321
331 321 318 315 316 318 319 318 319 314 309 306 307 308 308 309 315 311 307 306 304 303 303 302 301 301 302 303 304 306 304 306 307 311 307 310 315 318 316 318 320 320 322
324 312 308 309 313 320 325 324 318 313 312 309 307 308 311 321 318 321 320 317 309 303 300 301 300 299 300 302 304 304 302 300 299 304 304 304 308 309 314 318 320 320 320
320 312 309 308 310 313 323 325 323 311 310 309 310 310 311 317 317 308 316 314 311 313 312 304 300 299 300 303 303 301 300 300 299 302 303 301 304 305 309 312 320 321 321
322 315 311 307 308 311 321 321 320 309 307 307 310 310 310 311 313 309 305 305 304 303 303 305 303 303 304 305 304 302 301 300 301 303 304 300 303 304 307 308 320 320 319
318 317 313 308 308 309 318 318 310 306 306 303 305 306 312 309 315 319 306 304 301 301 307 314 316 317 317 317 315 305 302 299 298 300 303 302 303 303 304 306 308 318 317
317 317 315 312 314 309 316 315 309 304 301 300 301 304 313 314 315 317 306 300 297 299 300 301 303 305 308 306 313 307 304 301 298 298 304 303 302 303 300 302 304 304 305
Wind_Speed
4 4 4 3 4 3 4 4 4 4 5 6 6 5 6 5 5 4 4 15 16 18 20 17 17 18 17 19 18 18 17 17 16 15 14 14 13 12 11 11 10 10 9
4 4 4 4 4 3 5 4 5 5 4 4 6 6 7 4 5 5 4 4 16 15 19 20 22 21 20 20 19 20 18 18 17 17 15 13 14 13 13 14 13 13 11
7 5 4 4 4 3 5 3 4 4 3 3 5 4 3 5 5 7 7 6 8 12 21 25 24 21 21 20 20 20 20 19 18 17 16 15 13 15 14 13 13 12 11
6 6 4 4 2 4 4 4 4 4 4 3 3 4 4 4 7 7 8 7 6 6 16 20 21 21 22 23 20 20 22 20 19 18 17 16 16 15 15 13 12 12 11
6 4 2 4 5 4 4 3 2 3 3 3 3 4 5 4 5 4 6 7 7 7 6 13 19 26 25 23 20 21 22 21 19 19 18 17 16 15 17 15 14 13 12
4 5 4 5 2 4 4 3 4 3 4 4 3 4 4 5 5 5 6 5 6 8 8 9 8 12 25 21 27 21 20 20 22 20 19 18 17 17 15 16 14 14 12
6 7 5 4 2 3 5 3 3 4 3 1 2 3 3 4 4 3 3 4 5 6 7 7 6 6 8 23 25 21 23 22 23 22 21 19 18 18 17 16 15 14 14
6 5 6 7 7 5 4 4 5 1 2 3 2 1 4 4 2 1 2 3 4 4 6 7 8 8 8 6 12 21 24 22 24 22 21 21 20 19 19 17 16 15 15
5 4 6 4 2 4 3 3 2 4 2 1 4 3 2 2 3 2 2 1 2 2 3 4 6 7 8 7 9 14 21 21 25 22 21 21 21 21 20 19 18 17 17
4 2 2 2 4 2 2 3 2 2 3 3 1 3 2 3 1 3 2 3 3 4 4 3 4 5 6 5 11 15 15 18 20 21 19 21 21 22 21 20 19 19 18
3 4 4 3 2 2 2 2 1 1 2 1 2 1 1 1 1 2 3 4 3 2 3 3 3 3 4 5 6 11 19 22 19 17 17 17 20 24 24 23 21 19 19
1 3 3 2 1 1 1 1 2 4 3 2 1 1 1 1 1 2 1 2 3 4 2 3 3 3 3 3 6 11 17 17 16 16 14 12 17 21 22 23 23 21 21
1 2 2 3 3 3 4 4 5 5 4 4 4 3 2 3 1 1 1 2 2 2 2 1 2 3 3 3 4 9 12 13 15 10 6 9 11 14 17 19 19 21 21
3 3 4 4 4 5 5 5 4 4 5 5 7 5 4 4 4 3 2 2 2 2 2 3 2 4 3 4 4 9 5 10 13 12 9 5 9 9 13 16 17 17 18
4 5 5 5 4 5 6 6 4 5 5 5 5 6 4 4 4 4 3 2 1 2 2 4 3 5 6 4 7 5 4 6 12 7 5 6 3 4 7 13 15 15 14
5 6 6 5 6 6 6 6 5 4 6 4 4 6 5 3 4 4 4 3 3 1 2 2 3 4 6 6 10 7 6 5 2 6 7 4 3 2 4 3 3 4 7
6 6 6 6 6 6 6 6 6 6 7 6 5 6 5 4 4 4 4 4 4 3 2 2 2 4 6 7 6 6 7 6 4 1 5 8 6 6 7 9 5 6 8
6 7 6 6 5 5 5 6 6 5 6 6 5 5 5 3 6 5 4 5 4 4 3 3 3 4 5 7 5 6 7 7 5 10 4 6 6 6 6 9 9 7 10
6 5 6 6 5 4 3 2 5 6 6 6 5 5 4 5 4 2 3 4 3 3 4 3 3 2 2 4 3 4 5 6 6 10 12 14 13 10 12 12 15 7 7
7 6 5 6 5 3 5 4 5 6 5 5 5 5 4 5 5 3 4 4 3 4 3 3 2 3 2 3 2 2 4 3 4 5 9 6 6 9 9 6 9 15 12
7 7 7 6 6 4 3 6 5 5 6 4 3 3 3 5 7 4 3 2 3 3 3 3 3 3 3 3 3 3 2 3 3 3 3 3 3 2 1 4 3 7 11
7 7 7 7 6 3 9 9 8 5 4 4 4 4 3 6 5 5 6 6 5 3 1 0 1 1 3 2 2 2 2 3 4 2 4 4 3 3 3 3 5 6 8
7 7 7 6 6 4 7 7 8 4 4 3 4 4 4 3 4 2 2 2 1 1 2 4 3 3 2 4 2 2 2 3 4 4 2 3 2 4 3 3 8 4 7
8 6 6 6 6 4 7 7 9 4 4 3 1 5 6 6 7 7 3 4 5 6 5 2 5 6 6 5 4 4 4 3 3 4 4 3 2 3 3 3 3 6 6
5 5 5 6 6 5 8 9 6 3 1 2 3 4 5 6 8 9 3 4 6 7 5 9 9 9 10 12 7 1 3 2 3 3 3 3 3 3 2 3 4 3 0
5 5 5 4 4 6 7 9 6 2 1 2 4 4 7 6 5 8 5 4 6 7 6 7 7 7 7 8 12 6 4 4 2 3 4 4 2 2 4 3 2 3 3
Wind_Direction
213 221 228 225 224 220 231 237 241 249 239 249 248 234 230 218 222 209 223 249 245 229 210 219 221 234 221 219 217 218 215 213 206 202 195 199 202 198 194 195 196 201 205
206 212 225 231 236 208 250 218 224 229 240 229 236 230 233 216 218 221 225 230 252 252 233 229 224 232 225 219 218 219 218 214 215 207 201 202 207 206 201 196 202 203 207
207 205 215 228 240 227 241 228 238 230 230 251 252 235 243 248 213 210 224 225 246 237 241 251 224 222 232 229 218 226 221 215 213 214 206 202 209 209 211 205 206 208 207
203 200 220 247 249 237 220 214 226 244 242 226 250 253 244 235 231 212 211 216 230 202 229 245 216 226 230 240 233 225 229 221 219 218 208 203 205 211 214 209 213 211 208
206 203 189 234 220 244 248 240 261 206 242 247 238 225 241 233 239 213 214 215 222 223 223 236 206 226 234 239 248 241 228 229 220 218 216 210 210 211 215 212 210 211 213
198 194 215 262 242 241 238 230 234 209 227 248 261 268 254 235 220 219 214 216 221 222 217 219 227 233 236 221 248 232 229 224 232 220 217 214 213 211 210 211 212 209 213
182 199 224 261 207 266 261 261 241 227 253 155 307 319 275 266 261 239 215 214 218 229 235 237 223 215 233 239 233 230 236 227 228 221 216 217 213 213 211 211 212 213 212
192 205 209 230 204 197 240 228 202 272 18 171 141 293 327 334 359 6 242 229 238 231 232 226 234 232 218 232 222 226 229 228 235 226 219 216 217 214 211 208 209 209 213
175 200 224 222 163 167 220 246 320 163 216 305 189 170 300 259 324 328 334 300 289 251 240 239 229 221 227 205 210 227 227 224 230 224 224 218 219 219 215 209 207 207 209
142 158 168 155 142 180 250 261 255 222 173 235 62 216 201 172 225 317 322 330 331 295 289 276 252 229 218 223 220 215 224 229 225 233 230 222 221 218 217 215 211 207 209
91 99 114 113 162 208 266 299 355 120 167 177 196 247 157 222 229 225 286 321 330 266 258 272 294 302 271 232 220 230 219 215 222 224 232 232 223 223 217 219 215 211 210
90 104 91 65 355 53 34 95 54 57 66 77 67 64 169 168 190 231 259 307 268 297 297 301 312 299 309 274 243 226 235 224 218 216 211 239 229 229 219 217 215 219 218
148 93 85 70 52 57 62 75 74 63 53 59 59 57 46 33 330 354 117 277 301 301 320 311 350 353 336 297 251 263 256 227 216 188 219 272 241 229 223 221 220 221 223
139 119 101 84 72 79 73 70 66 67 66 59 60 59 61 38 24 6 336 322 310 316 330 319 347 358 344 340 315 312 255 224 191 194 200 239 272 259 234 221 223 224 226
127 123 114 96 68 93 86 91 87 79 74 63 58 58 55 38 36 35 42 21 324 323 316 335 335 9 350 4 17 359 354 214 185 183 228 225 280 298 248 240 227 221 231
118 132 119 108 91 95 99 98 97 92 90 74 70 75 68 49 57 39 35 39 26 358 309 354 1 343 353 356 4 9 23 45 123 223 256 205 164 59 2 300 196 211 235
148 137 125 112 108 114 121 106 101 112 93 86 72 83 72 58 57 40 35 35 35 24 7 12 22 335 16 5 355 359 13 25 20 29 107 79 59 68 46 4 343 298 255
135 136 131 117 113 114 124 125 124 110 111 106 100 87 90 79 63 44 51 52 43 15 43 9 329 342 20 358 349 18 19 19 9 44 53 80 62 34 31 350 318 278 277
131 121 113 110 108 96 86 99 121 127 120 111 126 116 137 105 84 74 76 64 46 30 31 49 331 324 325 6 341 9 8 12 359 66 60 46 42 55 46 24 343 308 242
126 120 113 112 110 101 101 96 110 103 101 116 135 132 142 119 126 102 72 66 64 49 30 38 0 332 334 320 344 346 353 353 348 30 55 82 60 20 24 41 2 345 351
124 122 118 103 99 100 94 104 118 125 128 133 163 177 161 156 156 153 119 84 82 62 25 15 349 344 331 345 353 321 316 321 312 16 340 349 356 357 308 344 302 328 314
122 119 117 124 117 102 123 136 149 155 145 151 206 238 224 192 180 171 166 164 154 126 29 353 295 295 280 268 312 326 340 13 336 347 12 317 349 307 303 267 263 284 295
128 125 129 128 124 134 134 123 133 126 151 211 221 231 260 253 225 259 255 210 293 349 167 181 209 230 257 227 228 286 259 215 234 279 65 298 319 313 308 317 317 238 225
140 146 147 145 146 160 139 132 126 123 96 59 152 230 224 234 224 209 239 322 321 314 307 247 207 237 230 257 217 216 231 252 290 273 165 228 272 257 286 286 254 66 105
136 151 156 158 155 153 148 139 122 119 92 2 354 353 311 263 251 202 201 259 297 301 300 298 289 280 252 258 262 177 263 182 264 262 226 180 241 261 271 269 264 252 65
137 139 158 170 189 167 171 149 138 133 112 326 339 343 340 301 256 207 207 241 279 265 286 310 312 306 289 279 288 213 182 221 214 301 246 176 200 186 320 274 296 269 262